When you browse on this site, cookies collect data to enhance your experience and personalize the content and advertising you see.
Visit our Privacy Policy to learn more. By continuing to use the site, you agree to this use of cookies and data.
  • In Deutschland
  • Länderverzeichnis
  • Für 7 Tage
  • Wassertemperatur
  • Wetterkarte
  • Widgets
  • user-avatar
    Anmelden

    Stündliche Wetter Nachiczewan

    Heute, 25 August, Sonntag

    Zeit Temperatur Niederschläge Wind Luftdruck Luftfeuchtigkeit
    00:00 +28°C° 0 mm 1 m/S 688 mmHg 36%
    01:00 +27°C° 0 mm 1 m/S 688 mmHg 38%
    02:00 +26°C° 0 mm 1 m/S 688 mmHg 41%
    03:00 +25°C° 0 mm 1 m/S 688 mmHg 41%
    04:00 +25°C° 0 mm 1 m/S 688 mmHg 42%
    05:00 +25°C° 0 mm 1 m/S 688 mmHg 43%
    06:00 +25°C° 0 mm 1 m/S 688 mmHg 44%
    07:00 +27°C° 0 mm 1 m/S 688 mmHg 39%
    08:00 +29°C° 0 mm 1 m/S 689 mmHg 34%
    09:00 +31°C° 0 mm 1 m/S 689 mmHg 30%
    10:00 +32°C° 0 mm 1 m/S 689 mmHg 26%
    11:00 +34°C° 0 mm 1 m/S 688 mmHg 23%
    12:00 +35°C° 0 mm 1 m/S 688 mmHg 19%
    13:00 +36°C° 0 mm 1 m/S 688 mmHg 17%
    14:00 +37°C° 0 mm 1 m/S 688 mmHg 16%
    15:00 +39°C° 0 mm 1 m/S 688 mmHg 14%
    16:00 +39°C° 0 mm 2 m/S 688 mmHg 15%
    17:00 +38°C° 0 mm 3 m/S 688 mmHg 16%
    18:00 +38°C° 0 mm 3 m/S 688 mmHg 16%
    19:00 +36°C° 0 mm 4 m/S 688 mmHg 21%
    20:00 +34°C° 0 mm 4 m/S 688 mmHg 25%
    21:00 +32°C° 0 mm 4 m/S 688 mmHg 30%
    22:00 +30°C° 0 mm 3 m/S 688 mmHg 32%
    23:00 +29°C° 0 mm 2 m/S 688 mmHg 33%

    Morgen, 26 August, Montag

    Zeit Temperatur Niederschläge Wind Luftdruck Luftfeuchtigkeit
    00:00 +28°C° 0 mm 1 m/S 687 mmHg 35%
    01:00 +27°C° 0 mm 1 m/S 687 mmHg 37%
    02:00 +26°C° 0 mm 1 m/S 687 mmHg 38%
    03:00 +25°C° 0 mm 1 m/S 687 mmHg 39%
    04:00 +25°C° 0 mm 1 m/S 687 mmHg 40%
    05:00 +25°C° 0 mm 1 m/S 688 mmHg 40%
    06:00 +25°C° 0 mm 1 m/S 688 mmHg 40%
    07:00 +27°C° 0 mm 1 m/S 688 mmHg 36%
    08:00 +29°C° 0 mm 1 m/S 688 mmHg 32%
    09:00 +30°C° 0 mm 1 m/S 688 mmHg 28%
    10:00 +32°C° 0 mm 1 m/S 688 mmHg 25%
    11:00 +34°C° 0 mm 2 m/S 688 mmHg 22%
    12:00 +36°C° 0 mm 2 m/S 688 mmHg 19%
    13:00 +37°C° 0 mm 2 m/S 688 mmHg 17%
    14:00 +38°C° 0 mm 3 m/S 688 mmHg 16%
    15:00 +40°C° 0 mm 3 m/S 688 mmHg 14%
    16:00 +38°C° 0 mm 4 m/S 687 mmHg 16%
    17:00 +36°C° 0 mm 5 m/S 687 mmHg 19%
    18:00 +35°C° 0 mm 5 m/S 687 mmHg 21%
    19:00 +33°C° 0 mm 4 m/S 687 mmHg 24%
    20:00 +30°C° 0 mm 4 m/S 688 mmHg 26%
    21:00 +28°C° 0 mm 3 m/S 688 mmHg 29%
    22:00 +27°C° 0.1 mm 3 m/S 688 mmHg 32%
    23:00 +26°C° 0.1 mm 2 m/S 688 mmHg 36%

    übermorgen, 27 August, Dienstag

    Zeit Temperatur Niederschläge Wind Luftdruck Luftfeuchtigkeit
    00:00 +25°C° 0.1 mm 2 m/S 688 mmHg 39%
    01:00 +24°C° 0 mm 2 m/S 688 mmHg 41%
    02:00 +23°C° 0 mm 2 m/S 688 mmHg 44%
    03:00 +23°C° 0 mm 2 m/S 688 mmHg 46%
    04:00 +22°C° 0 mm 1 m/S 688 mmHg 46%
    05:00 +22°C° 0 mm 1 m/S 688 mmHg 47%
    06:00 +22°C° 0 mm 1 m/S 688 mmHg 47%
    07:00 +23°C° 0 mm 1 m/S 688 mmHg 42%
    08:00 +25°C° 0 mm 2 m/S 688 mmHg 37%
    09:00 +27°C° 0 mm 2 m/S 688 mmHg 32%
    10:00 +29°C° 0 mm 2 m/S 688 mmHg 28%
    11:00 +31°C° 0 mm 2 m/S 688 mmHg 25%
    12:00 +34°C° 0 mm 2 m/S 688 mmHg 21%
    13:00 +35°C° 0 mm 2 m/S 687 mmHg 19%
    14:00 +36°C° 0 mm 2 m/S 687 mmHg 18%
    15:00 +37°C° 0 mm 2 m/S 687 mmHg 16%
    16:00 +37°C° 0 mm 3 m/S 687 mmHg 17%
    17:00 +36°C° 0 mm 3 m/S 686 mmHg 18%
    18:00 +36°C° 0 mm 4 m/S 686 mmHg 18%
    19:00 +33°C° 0 mm 4 m/S 686 mmHg 23%
    20:00 +30°C° 0 mm 3 m/S 686 mmHg 28%
    21:00 +27°C° 0 mm 3 m/S 686 mmHg 33%
    22:00 +26°C° 0 mm 3 m/S 686 mmHg 36%
    23:00 +26°C° 0 mm 2 m/S 686 mmHg 39%

    28 August, Mittwoch

    Zeit Temperatur Niederschläge Wind Luftdruck Luftfeuchtigkeit
    00:00 +25°C° 0 mm 2 m/S 686 mmHg 41%
    01:00 +24°C° 0 mm 1 m/S 686 mmHg 44%
    02:00 +23°C° 0 mm 1 m/S 686 mmHg 47%
    03:00 +20°C° 0 mm 0 m/S 686 mmHg 49%
    04:00 +20°C° 0 mm 0 m/S 686 mmHg 50%
    05:00 +20°C° 0 mm 0 m/S 686 mmHg 51%
    06:00 +20°C° 0 mm 0 m/S 686 mmHg 51%
    07:00 +24°C° 0 mm 1 m/S 686 mmHg 46%
    08:00 +26°C° 0 mm 1 m/S 687 mmHg 41%
    09:00 +28°C° 0 mm 1 m/S 687 mmHg 36%
    10:00 +29°C° 0 mm 1 m/S 687 mmHg 32%
    11:00 +31°C° 0 mm 1 m/S 687 mmHg 28%
    12:00 +33°C° 0 mm 1 m/S 687 mmHg 24%
    13:00 +35°C° 0 mm 2 m/S 687 mmHg 22%
    14:00 +36°C° 0 mm 2 m/S 686 mmHg 19%
    15:00 +37°C° 0 mm 2 m/S 686 mmHg 16%
    16:00 +36°C° 0 mm 2 m/S 686 mmHg 17%
    17:00 +36°C° 0 mm 2 m/S 686 mmHg 17%
    18:00 +36°C° 0 mm 2 m/S 686 mmHg 17%
    19:00 +34°C° 0 mm 2 m/S 686 mmHg 20%
    20:00 +31°C° 0 mm 2 m/S 687 mmHg 23%
    21:00 +28°C° 0 mm 3 m/S 687 mmHg 26%
    22:00 +28°C° 0 mm 3 m/S 687 mmHg 29%
    23:00 +27°C° 0 mm 2 m/S 687 mmHg 31%

    29 August, Donnerstag

    Zeit Temperatur Niederschläge Wind Luftdruck Luftfeuchtigkeit
    00:00 +26°C° 0 mm 2 m/S 687 mmHg 34%
    01:00 +25°C° 0 mm 2 m/S 687 mmHg 36%
    02:00 +24°C° 0 mm 1 m/S 687 mmHg 38%
    03:00 +24°C° 0 mm 1 m/S 686 mmHg 40%
    04:00 +23°C° 0 mm 1 m/S 687 mmHg 41%
    05:00 +23°C° 0 mm 1 m/S 687 mmHg 42%
    06:00 +23°C° 0 mm 1 m/S 687 mmHg 43%
    07:00 +25°C° 0 mm 1 m/S 687 mmHg 38%
    08:00 +27°C° 0 mm 1 m/S 687 mmHg 33%
    09:00 +29°C° 0 mm 1 m/S 688 mmHg 28%
    10:00 +32°C° 0 mm 2 m/S 687 mmHg 25%
    11:00 +35°C° 0 mm 2 m/S 687 mmHg 21%
    12:00 +37°C° 0 mm 3 m/S 687 mmHg 17%
    13:00 +38°C° 0 mm 2 m/S 687 mmHg 16%
    14:00 +39°C° 0 mm 2 m/S 687 mmHg 14%
    15:00 +40°C° 0 mm 2 m/S 686 mmHg 13%
    16:00 +38°C° 0.1 mm 3 m/S 686 mmHg 16%
    17:00 +36°C° 0.1 mm 3 m/S 686 mmHg 19%
    18:00 +34°C° 0.1 mm 4 m/S 686 mmHg 23%
    19:00 +33°C° 0.2 mm 4 m/S 687 mmHg 27%
    20:00 +32°C° 0.2 mm 4 m/S 687 mmHg 31%
    21:00 +29°C° 0.2 mm 3 m/S 687 mmHg 35%
    22:00 +28°C° 0 mm 3 m/S 687 mmHg 37%
    23:00 +27°C° 0 mm 2 m/S 687 mmHg 40%

    30 August, Freitag

    Zeit Temperatur Niederschläge Wind Luftdruck Luftfeuchtigkeit
    00:00 +26°C° 0 mm 1 m/S 686 mmHg 42%
    01:00 +26°C° 0.1 mm 1 m/S 686 mmHg 43%
    02:00 +26°C° 0.1 mm 2 m/S 686 mmHg 44%
    03:00 +25°C° 0.1 mm 2 m/S 686 mmHg 44%
    04:00 +25°C° 0.1 mm 2 m/S 686 mmHg 47%
    05:00 +24°C° 0.1 mm 2 m/S 686 mmHg 49%
    06:00 +23°C° 0.1 mm 2 m/S 686 mmHg 52%
    07:00 +25°C° 0 mm 2 m/S 686 mmHg 46%
    08:00 +27°C° 0 mm 2 m/S 686 mmHg 40%
    09:00 +29°C° 0 mm 2 m/S 686 mmHg 34%
    10:00 +31°C° 0.1 mm 2 m/S 686 mmHg 31%
    11:00 +33°C° 0.1 mm 3 m/S 686 mmHg 28%
    12:00 +35°C° 0.1 mm 3 m/S 686 mmHg 25%
    13:00 +35°C° 0.1 mm 4 m/S 686 mmHg 24%
    14:00 +36°C° 0.1 mm 5 m/S 685 mmHg 23%
    15:00 +36°C° 0.1 mm 6 m/S 685 mmHg 23%
    16:00 +35°C° 0 mm 5 m/S 684 mmHg 27%
    17:00 +33°C° 0 mm 4 m/S 684 mmHg 31%
    18:00 +32°C° 0 mm 4 m/S 684 mmHg 35%
    19:00 +29°C° 0 mm 3 m/S 684 mmHg 39%
    20:00 +27°C° 0 mm 3 m/S 684 mmHg 44%
    21:00 +25°C° 0 mm 3 m/S 685 mmHg 49%
    22:00 +24°C° 0 mm 2 m/S 685 mmHg 52%
    23:00 +24°C° 0 mm 2 m/S 684 mmHg 55%
    Mehr zeigen